When you browse on this site, cookies collect data to enhance your experience and personalize the content and advertising you see.
Visit our Privacy Policy to learn more. By continuing to use the site, you agree to this use of cookies and data.
  • In United Kingdom
  • List of Countries
  • For 7 days
  • Water Temperature
  • Weather Map
  • Weather Widgets
  • user-avatar
    Login

    Hourly Weather Satoraljaujhely

    Today, 26 January, Sunday

    Time Temperature Precipitation Wind Pressure Humidity
    00:00 -2°C° 0 mm 0 mps 759 mmHg 78%
    01:00 -2°C° 0 mm 0 mps 759 mmHg 78%
    02:00 -2°C° 0 mm 0 mps 759 mmHg 79%
    03:00 -2°C° 0 mm 0 mps 758 mmHg 80%
    04:00 -1°C° 0 mm 1 mps 758 mmHg 80%
    05:00 -1°C° 0 mm 1 mps 758 mmHg 81%
    06:00 -1°C° 0 mm 1 mps 758 mmHg 82%
    07:00 -1°C° 0 mm 1 mps 758 mmHg 83%
    08:00 0°C° 0 mm 1 mps 758 mmHg 79%
    09:00 0°C° 0 mm 0 mps 759 mmHg 75%
    10:00 +1°C° 0 mm 0 mps 759 mmHg 71%
    11:00 +3°C° 0 mm 1 mps 758 mmHg 70%
    12:00 +3°C° 0 mm 1 mps 758 mmHg 69%
    13:00 +4°C° 0 mm 1 mps 757 mmHg 69%
    14:00 +4°C° 0 mm 1 mps 757 mmHg 72%
    15:00 +3°C° 0 mm 1 mps 757 mmHg 75%
    16:00 +3°C° 0 mm 1 mps 757 mmHg 78%
    17:00 +3°C° 0 mm 1 mps 757 mmHg 79%
    18:00 +3°C° 0 mm 1 mps 757 mmHg 80%
    19:00 +1°C° 0 mm 0 mps 756 mmHg 80%
    20:00 +1°C° 0 mm 0 mps 756 mmHg 81%
    21:00 +1°C° 0 mm 0 mps 756 mmHg 82%
    22:00 +1°C° 0 mm 0 mps 756 mmHg 83%
    23:00 +1°C° 0 mm 0 mps 756 mmHg 85%

    Tomorrow, 27 January, Monday

    Time Temperature Precipitation Wind Pressure Humidity
    00:00 +1°C° 0 mm 0 mps 756 mmHg 86%
    01:00 +1°C° 0 mm 0 mps 755 mmHg 88%
    02:00 +1°C° 0 mm 0 mps 755 mmHg 88%
    03:00 +1°C° 0 mm 0 mps 755 mmHg 89%
    04:00 +1°C° 0 mm 0 mps 754 mmHg 89%
    05:00 +1°C° 0 mm 0 mps 754 mmHg 90%
    06:00 +1°C° 0 mm 0 mps 754 mmHg 91%
    07:00 +2°C° 0 mm 1 mps 754 mmHg 91%
    08:00 +2°C° 0 mm 0 mps 754 mmHg 90%
    09:00 +2°C° 0 mm 0 mps 754 mmHg 89%
    10:00 +3°C° 0 mm 0 mps 754 mmHg 87%
    11:00 +3°C° 0.1 mm 0 mps 754 mmHg 89%
    12:00 +3°C° 0.1 mm 0 mps 753 mmHg 90%
    13:00 +3°C° 0.1 mm 0 mps 753 mmHg 91%
    14:00 +2°C° 0.2 mm 0 mps 753 mmHg 92%
    15:00 +2°C° 0.2 mm 0 mps 753 mmHg 94%
    16:00 +2°C° 0.2 mm 0 mps 753 mmHg 95%
    17:00 +2°C° 0 mm 0 mps 753 mmHg 95%
    18:00 +2°C° 0 mm 0 mps 753 mmHg 95%
    19:00 +1°C° 0 mm 0 mps 753 mmHg 95%
    20:00 +1°C° 0 mm 0 mps 753 mmHg 96%
    21:00 +2°C° 0 mm 1 mps 753 mmHg 96%
    22:00 +2°C° 0 mm 1 mps 753 mmHg 96%
    23:00 +2°C° 0 mm 1 mps 752 mmHg 96%

    Day after tomorrow, 28 January, Tuesday

    Time Temperature Precipitation Wind Pressure Humidity
    00:00 +2°C° 0 mm 1 mps 752 mmHg 96%
    01:00 +2°C° 0 mm 1 mps 752 mmHg 97%
    02:00 +2°C° 0 mm 1 mps 751 mmHg 97%
    03:00 +2°C° 0 mm 1 mps 751 mmHg 97%
    04:00 +1°C° 0 mm 2 mps 750 mmHg 97%
    05:00 +1°C° 0 mm 2 mps 750 mmHg 97%
    06:00 +1°C° 0 mm 2 mps 750 mmHg 97%
    07:00 +1°C° 0 mm 2 mps 749 mmHg 97%
    08:00 +1°C° 0 mm 2 mps 749 mmHg 96%
    09:00 +1°C° 0 mm 3 mps 749 mmHg 95%
    10:00 +1°C° 0 mm 3 mps 748 mmHg 94%
    11:00 +2°C° 0.2 mm 3 mps 747 mmHg 94%
    12:00 +1°C° 0.2 mm 4 mps 746 mmHg 93%
    13:00 +3°C° 0.2 mm 4 mps 745 mmHg 93%
    14:00 +2°C° 1.5 mm 5 mps 745 mmHg 94%
    15:00 +2°C° 1.5 mm 5 mps 744 mmHg 94%
    16:00 +2°C° 1.5 mm 5 mps 743 mmHg 95%
    17:00 +2°C° 0.8 mm 5 mps 743 mmHg 95%
    18:00 +3°C° 0.8 mm 5 mps 742 mmHg 95%
    19:00 +4°C° 0.8 mm 4 mps 742 mmHg 95%
    20:00 +4°C° 1 mm 4 mps 741 mmHg 95%
    21:00 +4°C° 1 mm 4 mps 741 mmHg 96%
    22:00 +4°C° 1 mm 3 mps 740 mmHg 96%
    23:00 +4°C° 2.9 mm 3 mps 739 mmHg 96%

    29 January, Wednesday

    Time Temperature Precipitation Wind Pressure Humidity
    00:00 +4°C° 2.9 mm 3 mps 738 mmHg 97%
    01:00 +4°C° 2.9 mm 3 mps 738 mmHg 97%
    02:00 +3°C° 2.6 mm 4 mps 737 mmHg 96%
    03:00 +2°C° 2.6 mm 5 mps 737 mmHg 95%
    04:00 +1°C° 2.6 mm 5 mps 737 mmHg 95%
    05:00 +1°C° 1.8 mm 5 mps 738 mmHg 93%
    06:00 0°C° 1.8 mm 4 mps 739 mmHg 92%
    07:00 0°C° 1.8 mm 4 mps 740 mmHg 90%
    08:00 0°C° 0.1 mm 4 mps 741 mmHg 87%
    09:00 +1°C° 0.1 mm 4 mps 742 mmHg 85%
    10:00 +1°C° 0.1 mm 4 mps 743 mmHg 82%
    11:00 +1°C° 0 mm 5 mps 743 mmHg 81%
    12:00 +2°C° 0 mm 5 mps 743 mmHg 79%
    13:00 +2°C° 0 mm 6 mps 743 mmHg 78%
    14:00 +2°C° 0 mm 5 mps 743 mmHg 79%
    15:00 +1°C° 0 mm 5 mps 744 mmHg 79%
    16:00 +1°C° 0 mm 4 mps 744 mmHg 80%
    17:00 0°C° 0 mm 4 mps 744 mmHg 82%
    18:00 0°C° 0 mm 4 mps 744 mmHg 83%
    19:00 0°C° 0 mm 3 mps 745 mmHg 85%
    20:00 0°C° 0 mm 3 mps 745 mmHg 86%
    21:00 -1°C° 0 mm 2 mps 745 mmHg 87%
    22:00 +1°C° 0 mm 1 mps 745 mmHg 89%
    23:00 -1°C° 0 mm 2 mps 745 mmHg 88%

    30 January, Thursday

    Time Temperature Precipitation Wind Pressure Humidity
    00:00 -1°C° 0 mm 2 mps 746 mmHg 87%
    01:00 -1°C° 0 mm 2 mps 746 mmHg 86%
    02:00 -1°C° 0 mm 2 mps 746 mmHg 85%
    03:00 -1°C° 0 mm 2 mps 746 mmHg 85%
    04:00 -1°C° 0 mm 2 mps 747 mmHg 84%
    05:00 -1°C° 0 mm 2 mps 747 mmHg 84%
    06:00 -1°C° 0 mm 2 mps 748 mmHg 84%
    07:00 -1°C° 0 mm 2 mps 748 mmHg 84%
    08:00 +1°C° 0 mm 2 mps 749 mmHg 82%
    09:00 +1°C° 0 mm 2 mps 749 mmHg 80%
    10:00 +2°C° 0 mm 2 mps 750 mmHg 78%
    11:00 +3°C° 0 mm 2 mps 750 mmHg 76%
    12:00 +3°C° 0 mm 2 mps 750 mmHg 75%
    13:00 +4°C° 0 mm 2 mps 750 mmHg 74%
    14:00 +3°C° 0 mm 2 mps 751 mmHg 76%
    15:00 +3°C° 0 mm 1 mps 751 mmHg 78%
    16:00 +3°C° 0 mm 1 mps 751 mmHg 80%
    17:00 +2°C° 0 mm 1 mps 752 mmHg 81%
    18:00 +2°C° 0 mm 1 mps 752 mmHg 82%
    19:00 +1°C° 0 mm 1 mps 752 mmHg 83%
    20:00 +1°C° 0 mm 1 mps 753 mmHg 84%
    21:00 +1°C° 0 mm 1 mps 753 mmHg 85%
    22:00 +1°C° 0 mm 1 mps 753 mmHg 85%
    23:00 +1°C° 0 mm 1 mps 754 mmHg 85%

    31 January, Friday

    Time Temperature Precipitation Wind Pressure Humidity
    00:00 +1°C° 0 mm 1 mps 754 mmHg 85%
    01:00 +1°C° 0 mm 1 mps 754 mmHg 85%
    02:00 +1°C° 0 mm 1 mps 754 mmHg 85%
    03:00 +1°C° 0 mm 1 mps 754 mmHg 85%
    04:00 +1°C° 0 mm 1 mps 755 mmHg 85%
    05:00 +1°C° 0 mm 1 mps 755 mmHg 86%
    06:00 +1°C° 0 mm 1 mps 755 mmHg 86%
    07:00 +1°C° 0 mm 1 mps 755 mmHg 87%
    08:00 +1°C° 0 mm 1 mps 755 mmHg 84%
    09:00 +2°C° 0 mm 1 mps 755 mmHg 82%
    10:00 +3°C° 0 mm 1 mps 755 mmHg 80%
    11:00 +3°C° 0 mm 1 mps 755 mmHg 78%
    12:00 +4°C° 0 mm 1 mps 755 mmHg 77%
    13:00 +4°C° 0 mm 1 mps 755 mmHg 75%
    14:00 +4°C° 0 mm 1 mps 755 mmHg 78%
    15:00 +3°C° 0 mm 1 mps 755 mmHg 81%
    16:00 +3°C° 0 mm 1 mps 755 mmHg 84%
    17:00 +2°C° 0 mm 1 mps 755 mmHg 85%
    18:00 +2°C° 0 mm 1 mps 755 mmHg 87%
    19:00 +1°C° 0 mm 1 mps 755 mmHg 89%
    20:00 +1°C° 0 mm 1 mps 755 mmHg 89%
    21:00 +1°C° 0 mm 1 mps 755 mmHg 90%
    22:00 +1°C° 0 mm 1 mps 755 mmHg 90%
    23:00 +1°C° 0 mm 1 mps 755 mmHg 90%
    Show more